Regional Weather Roundup
Issued by NWS

Home | Current Version | Previous Version | Text Only | Print | Product List | Glossary On
Versions: 1 2 3 4 5 6 7 8 9 10 11 12 13 14 15 16 17 18 19 20 21 22 23 24 25 26 27 28 29 30 31 32 33 34 35 36 37 38 39 40 41 42 43 44 45 46 47 48 49 50
000
ASUS43 KBIS 222120
RWRND

NORTH DAKOTA REGIONAL WEATHER ROUNDUP
NATIONAL WEATHER SERVICE BISMARCK ND
400 PM CDT TUE JUL 22 2014

NOTE: "FAIR" INDICATES FEW OR NO CLOUDS BELOW 12,000 FEET WITH NO
SIGNIFICANT WEATHER AND/OR OBSTRUCTIONS TO VISIBILITY.


NDZ001>003-009>011-017-222200-
NORTHWEST NORTH DAKOTA

CITY           SKY/WX    TMP DP  RH WIND       PRES   REMARKS
WILLISTON      MOSUNNY   87  55  33 NW10      30.17S
MINOT          MOSUNNY   78  60  53 NE6       30.20S
MINOT AFB      SUNNY     77  62  59 VRB5      30.20S
$$

NDZ018>021-031>035-040>046-222200-
SOUTHWEST NORTH DAKOTA

CITY           SKY/WX    TMP DP  RH WIND       PRES   REMARKS
BISMARCK       PTSUNNY   81  59  47 VRB6      30.21S
DICKINSON      SUNNY     80  63  55 E7        30.21S
GARRISON         N/A     78  62  57 VRB3      30.20S
HETTINGER ARPT PTSUNNY   80  62  54 E13       30.22S
$$

NDZ004>008-012>016-024-026-027-054-222200-
NORTHEAST NORTH DAKOTA

CITY           SKY/WX    TMP DP  RH WIND       PRES   REMARKS
GRAND FORKS    MOSUNNY   76  57  51 N14       30.16S
GRND FRKS AFB  SUNNY     76  60  56 N10G20    30.18S
DEVILS LAKE    MOSUNNY   73  57  56 N6        30.19R
$$

NDZ022-023-025-028>030-036>039-047>053-222200-
SOUTHEAST NORTH DAKOTA

CITY           SKY/WX    TMP DP  RH WIND       PRES   REMARKS
FARGO          SUNNY     79  57  46 N18G26    30.15S
JAMESTOWN      MOSUNNY   78  59  51 N7        30.19R
$$



USA.gov is the U.S. government's official web portal to all federal, state and local government web resources and services.